When you browse on this site, cookies collect data to enhance your experience and personalize the content and advertising you see.
Visit our Privacy Policy to learn more. By continuing to use the site, you agree to this use of cookies and data.
  • In Latvia
  • List of Countries
  • For 7 days
  • Water Temperature
  • Satellite Maps
  • Weather Map
  • Weather Widgets
  • user-avatar
    Login

    Hourly Weather Shargorod

    Today, 12 December, Wednesday

    Time Temperature Precipitation Wind Pressure Humidity
    00:00 -4°C° 0 mm 2 mps 737 mmHg 92%
    01:00 -4°C° 0 mm 2 mps 737 mmHg 92%
    02:00 -4°C° 0 mm 2 mps 736 mmHg 93%
    03:00 -4°C° 0 mm 2 mps 736 mmHg 93%
    04:00 -5°C° 0 mm 3 mps 736 mmHg 92%
    05:00 -5°C° 0 mm 3 mps 736 mmHg 92%
    06:00 -5°C° 0 mm 3 mps 737 mmHg 92%
    07:00 -5°C° 0 mm 3 mps 737 mmHg 92%
    08:00 -5°C° 0 mm 3 mps 737 mmHg 91%
    09:00 -4°C° 0 mm 4 mps 737 mmHg 89%
    10:00 -3°C° 0 mm 4 mps 737 mmHg 86%
    11:00 -4°C° 0 mm 5 mps 737 mmHg 84%
    12:00 -2°C° 0.1 mm 5 mps 737 mmHg 84%
    13:00 -2°C° 0.1 mm 5 mps 737 mmHg 84%
    14:00 -2°C° 0.1 mm 5 mps 737 mmHg 84%
    15:00 -2°C° 0.2 mm 5 mps 737 mmHg 86%
    16:00 -4°C° 0.2 mm 5 mps 737 mmHg 88%
    17:00 -4°C° 0.2 mm 5 mps 737 mmHg 90%
    18:00 -4°C° 0.3 mm 5 mps 736 mmHg 91%
    19:00 -4°C° 0.3 mm 5 mps 736 mmHg 91%
    20:00 -4°C° 0.3 mm 5 mps 736 mmHg 92%
    21:00 -4°C° 0.4 mm 5 mps 736 mmHg 92%
    22:00 -2°C° 0.4 mm 5 mps 736 mmHg 92%
    23:00 -2°C° 0.4 mm 5 mps 736 mmHg 93%

    Tomorrow, 13 December, Thursday

    Time Temperature Precipitation Wind Pressure Humidity
    00:00 -2°C° 0.5 mm 5 mps 736 mmHg 93%
    01:00 -2°C° 0.5 mm 5 mps 736 mmHg 93%
    02:00 -2°C° 0.5 mm 5 mps 736 mmHg 93%
    03:00 -2°C° 0.4 mm 5 mps 736 mmHg 93%
    04:00 -2°C° 0.4 mm 5 mps 736 mmHg 93%
    05:00 -2°C° 0.4 mm 5 mps 736 mmHg 93%
    06:00 -2°C° 0.3 mm 5 mps 736 mmHg 93%
    07:00 -2°C° 0.3 mm 5 mps 736 mmHg 93%
    08:00 -2°C° 0.3 mm 5 mps 736 mmHg 93%
    09:00 -2°C° 0.3 mm 5 mps 736 mmHg 92%
    10:00 -2°C° 0.3 mm 5 mps 736 mmHg 92%
    11:00 -2°C° 0.3 mm 5 mps 736 mmHg 92%
    12:00 -2°C° 0.3 mm 5 mps 736 mmHg 91%
    13:00 -2°C° 0.3 mm 5 mps 736 mmHg 91%
    14:00 -2°C° 0.3 mm 5 mps 736 mmHg 91%
    15:00 -2°C° 0.2 mm 5 mps 736 mmHg 92%
    16:00 -4°C° 0.2 mm 5 mps 737 mmHg 92%
    17:00 -3°C° 0.2 mm 4 mps 737 mmHg 93%
    18:00 -3°C° 0.2 mm 4 mps 737 mmHg 93%
    19:00 -3°C° 0.2 mm 4 mps 737 mmHg 93%
    20:00 -3°C° 0.2 mm 4 mps 737 mmHg 93%
    21:00 -3°C° 0.1 mm 4 mps 738 mmHg 93%
    22:00 -3°C° 0.1 mm 4 mps 738 mmHg 93%
    23:00 -3°C° 0.1 mm 4 mps 738 mmHg 94%

    Day after tomorrow, 14 December, Friday

    Time Temperature Precipitation Wind Pressure Humidity
    00:00 -3°C° 0.2 mm 4 mps 738 mmHg 94%
    01:00 -3°C° 0.2 mm 4 mps 739 mmHg 94%
    02:00 -3°C° 0.2 mm 4 mps 739 mmHg 94%
    03:00 -3°C° 0.2 mm 4 mps 739 mmHg 94%
    04:00 -3°C° 0.2 mm 4 mps 739 mmHg 94%
    05:00 -3°C° 0.2 mm 4 mps 739 mmHg 94%
    06:00 -3°C° 0.1 mm 4 mps 740 mmHg 94%
    07:00 -2°C° 0.1 mm 3 mps 740 mmHg 94%
    08:00 -2°C° 0.1 mm 3 mps 741 mmHg 95%
    09:00 -2°C° 0 mm 3 mps 741 mmHg 95%
    10:00 -2°C° 0 mm 3 mps 741 mmHg 95%
    11:00 -1°C° 0 mm 3 mps 742 mmHg 95%
    12:00 -1°C° 0 mm 3 mps 742 mmHg 94%
    13:00 -1°C° 0 mm 2 mps 742 mmHg 94%
    14:00 -1°C° 0 mm 2 mps 743 mmHg 94%
    15:00 -2°C° 0 mm 2 mps 743 mmHg 94%
    16:00 -2°C° 0 mm 2 mps 743 mmHg 94%
    17:00 -3°C° 0 mm 2 mps 744 mmHg 93%
    18:00 -3°C° 0 mm 2 mps 744 mmHg 93%
    19:00 -4°C° 0 mm 2 mps 744 mmHg 93%
    20:00 -2°C° 0 mm 1 mps 745 mmHg 93%
    21:00 -2°C° 0 mm 1 mps 745 mmHg 93%
    22:00 -3°C° 0 mm 1 mps 745 mmHg 93%
    23:00 -3°C° 0 mm 1 mps 746 mmHg 93%

    15 December, Saturday

    Time Temperature Precipitation Wind Pressure Humidity
    00:00 -3°C° 0 mm 1 mps 746 mmHg 93%
    01:00 -4°C° 0 mm 1 mps 746 mmHg 93%
    02:00 -4°C° 0 mm 1 mps 746 mmHg 93%
    03:00 -4°C° 0 mm 1 mps 746 mmHg 93%
    04:00 -4°C° 0 mm 1 mps 746 mmHg 93%
    05:00 -6°C° 0 mm 2 mps 746 mmHg 94%
    06:00 -6°C° 0 mm 2 mps 747 mmHg 94%
    07:00 -5°C° 0 mm 2 mps 747 mmHg 94%
    08:00 -5°C° 0 mm 2 mps 747 mmHg 95%
    09:00 -5°C° 0 mm 2 mps 747 mmHg 94%
    10:00 -4°C° 0 mm 2 mps 748 mmHg 93%
    11:00 -3°C° 0 mm 2 mps 748 mmHg 92%
    12:00 -3°C° 0 mm 2 mps 748 mmHg 93%
    13:00 -3°C° 0 mm 2 mps 748 mmHg 93%
    14:00 -3°C° 0 mm 2 mps 748 mmHg 93%
    15:00 -4°C° 0 mm 2 mps 748 mmHg 93%
    16:00 -5°C° 0 mm 3 mps 748 mmHg 94%
    17:00 -6°C° 0 mm 3 mps 748 mmHg 95%
    18:00 -6°C° 0 mm 3 mps 748 mmHg 94%
    19:00 -6°C° 0 mm 3 mps 748 mmHg 93%
    20:00 -5°C° 0 mm 4 mps 748 mmHg 93%
    21:00 -5°C° 0 mm 4 mps 749 mmHg 92%
    22:00 -7°C° 0 mm 4 mps 749 mmHg 91%
    23:00 -7°C° 0 mm 4 mps 749 mmHg 91%

    16 December, Sunday

    Time Temperature Precipitation Wind Pressure Humidity
    00:00 -7°C° 0 mm 4 mps 749 mmHg 92%
    01:00 -7°C° 0 mm 4 mps 749 mmHg 92%
    02:00 -8°C° 0 mm 4 mps 749 mmHg 93%
    03:00 -8°C° 0 mm 4 mps 749 mmHg 93%
    04:00 -8°C° 0 mm 4 mps 749 mmHg 94%
    05:00 -8°C° 0 mm 4 mps 748 mmHg 94%
    06:00 -8°C° 0 mm 4 mps 749 mmHg 94%
    07:00 -8°C° 0 mm 4 mps 749 mmHg 94%
    08:00 -7°C° 0 mm 5 mps 749 mmHg 94%
    09:00 -7°C° 0 mm 5 mps 749 mmHg 93%
    10:00 -7°C° 0 mm 5 mps 749 mmHg 92%
    11:00 -6°C° 0 mm 5 mps 749 mmHg 92%
    12:00 -6°C° 0 mm 5 mps 749 mmHg 91%
    13:00 -5°C° 0 mm 4 mps 749 mmHg 91%
    14:00 -5°C° 0 mm 4 mps 749 mmHg 90%
    15:00 -5°C° 0 mm 4 mps 749 mmHg 91%
    16:00 -7°C° 0 mm 4 mps 748 mmHg 91%
    17:00 -7°C° 0 mm 4 mps 748 mmHg 92%
    18:00 -6°C° 0 mm 3 mps 749 mmHg 92%
    19:00 -7°C° 0 mm 3 mps 749 mmHg 93%
    20:00 -8°C° 0 mm 3 mps 749 mmHg 94%
    21:00 -8°C° 0 mm 3 mps 749 mmHg 94%
    22:00 -9°C° 0 mm 4 mps 748 mmHg 94%
    23:00 -9°C° 0 mm 4 mps 748 mmHg 94%

    17 December, Monday

    Time Temperature Precipitation Wind Pressure Humidity
    00:00 -9°C° 0 mm 4 mps 748 mmHg 94%
    01:00 -8°C° 0 mm 3 mps 748 mmHg 94%
    02:00 -7°C° 0 mm 3 mps 748 mmHg 94%
    03:00 -7°C° 0 mm 3 mps 747 mmHg 94%
    04:00 -7°C° 0 mm 3 mps 747 mmHg 94%
    05:00 -7°C° 0 mm 3 mps 747 mmHg 94%
    06:00 -8°C° 0 mm 4 mps 747 mmHg 94%
    07:00 -8°C° 0 mm 4 mps 747 mmHg 94%
    08:00 -8°C° 0 mm 4 mps 747 mmHg 94%
    09:00 -8°C° 0 mm 4 mps 747 mmHg 94%
    10:00 -8°C° 0 mm 4 mps 747 mmHg 94%
    11:00 -7°C° 0 mm 4 mps 747 mmHg 94%
    12:00 -7°C° 0 mm 4 mps 746 mmHg 94%
    13:00 -7°C° 0 mm 4 mps 746 mmHg 94%
    14:00 -7°C° 0 mm 4 mps 745 mmHg 93%
    15:00 -7°C° 0 mm 4 mps 745 mmHg 94%
    16:00 -7°C° 0 mm 4 mps 745 mmHg 94%
    17:00 -8°C° 0 mm 4 mps 745 mmHg 95%
    18:00 -8°C° 0 mm 4 mps 745 mmHg 95%
    19:00 -8°C° 0 mm 4 mps 745 mmHg 95%
    20:00 -8°C° 0 mm 5 mps 745 mmHg 96%
    21:00 -8°C° 0 mm 4 mps 745 mmHg 96%
    22:00 -8°C° 0 mm 4 mps 745 mmHg 96%
    23:00 -8°C° 0 mm 4 mps 745 mmHg 96%
    Show more